カタログに戻る

DELTA 2 R/B(2)

運用中GTO
NORAD 25360·ROCKET BODY·🇺🇸 United States

打ち上げ Jun 10, 1998 から Cape Canaveral Space Force Station

Loading…

TLE

古いSource: Space-Track

元期: Sep 13, 2026, 08:56 UTC

1 25360U 98035C   26256.37282075 -.00000004  00000-0  00000-0 0  9991
2 25360  18.5450 152.2788 6942473  72.2715  14.0095  2.11093251217703

AllMySatでDELTA 2 R/B(2)をリアルタイム追跡

Download on the App Store